| time (UTC) | temp F | wind direction | speed knots | gust knots | rain 1hr in | rain 24hr in | rain mn in | humidity % | barometer mb |
| 20260507191814 | 32 | 90 | 0.0 | 0.0 | 0.00 | 0.00 | 0.00 | 54 | 1013.7 |
| 20260507190814 | 33 | 90 | 0.0 | 0.0 | 0.00 | 0.00 | 0.00 | 53 | 1013.7 |
| 20260507185814 | 33 | 90 | 0.0 | 0.0 | 0.00 | 0.00 | 0.00 | 53 | 1012.7 |
| 20260507184814 | 34 | 90 | 0.0 | 0.0 | 0.00 | 0.00 | 0.00 | 54 | 1012.7 |
| 20260507183814 | 34 | 90 | 0.0 | 0.0 | 0.00 | 0.00 | 0.00 | 52 | 1012.7 |
| 20260507182814 | 35 | 90 | 0.0 | 0.0 | 0.00 | 0.00 | 0.00 | 52 | 1012.7 |
| 20260507181814 | 35 | 90 | 0.0 | 0.0 | 0.00 | 0.00 | 0.00 | 49 | 1013.7 |
| 20260507180644 | 36 | 90 | 0.0 | 0.0 | 0.00 | 0.00 | 0.00 | 47 | 1013.7 |
| 20260507175644 | 37 | 90 | 0.0 | 0.0 | 0.00 | 0.00 | 0.00 | 46 | 1013.7 |
| 20260507174644 | 37 | 90 | 0.0 | 0.0 | 0.00 | 0.00 | 0.00 | 44 | 1013.7 |
| 20260507173644 | 38 | 22 | 0.0 | 0.0 | 0.00 | 0.00 | 0.00 | 44 | 1013.7 |
| 20260507172643 | 38 | 22 | 0.0 | 0.0 | 0.00 | 0.00 | 0.00 | 44 | 1013.7 |
| 20260507171514 | 38 | 22 | 0.0 | 0.0 | 0.00 | 0.00 | 0.00 | 44 | 1013.7 |
| 20260507170513 | 38 | 22 | 0.0 | 0.0 | 0.00 | 0.00 | 0.00 | 44 | 1013.7 |
| 20260507165322 | 39 | 22 | 0.0 | 0.0 | 0.00 | 0.00 | 0.00 | 43 | 1013.7 |
| 20260507164322 | 40 | 22 | 0.0 | 1.7 | 0.00 | 0.00 | 0.00 | 42 | 1013.7 |
| 20260507163322 | 40 | 22 | 0.0 | 0.0 | 0.00 | 0.00 | 0.00 | 39 | 1013.7 |
| 20260507162322 | 42 | 22 | 0.0 | 0.9 | 0.00 | 0.00 | 0.00 | 39 | 1013.7 |
| 20260507161322 | 43 | 22 | 0.0 | 0.0 | 0.00 | 0.00 | 0.00 | 37 | 1013.7 |
| 20260507160322 | 44 | 22 | 0.0 | 0.0 | 0.00 | 0.00 | 0.00 | 37 | 1013.7 |
| 20260507155322 | 46 | 22 | 0.0 | 0.0 | 0.00 | 0.00 | 0.00 | 29 | 1013.7 |
| 20260507154322 | 47 | 22 | 0.0 | 2.6 | 0.00 | 0.00 | 0.00 | 19 | 1012.7 |
| 20260507153322 | 49 | 0 | 0.0 | 1.7 | 0.00 | 0.00 | 0.00 | 10 | 1012.7 |
| 20260507152322 | 50 | 22 | 0.0 | 2.6 | 0.00 | 0.00 | 0.00 | 8 | 1012.7 |
| 20260507151322 | 51 | 344 | 0.9 | 2.6 | 0.00 | 0.00 | 0.00 | 8 | 1012.7 |
| 20260507150152 | 52 | 22 | 0.9 | 2.6 | 0.00 | 0.00 | 0.00 | 6 | 1012.7 |
| 20260507145152 | 52 | 18 | 0.9 | 3.5 | 0.00 | 0.00 | 0.00 | 6 | 1012.7 |
| 20260507144152 | 52 | 22 | 0.9 | 2.6 | 0.00 | 0.00 | 0.00 | 6 | 1012.7 |
| 20260507143001 | 53 | 10 | 1.7 | 5.2 | 0.00 | 0.00 | 0.00 | 6 | 1012.7 |
| 20260507142001 | 54 | 22 | 0.0 | 2.6 | 0.00 | 0.00 | 0.00 | 6 | 1011.6 |
| 20260507141001 | 55 | 31 | 0.9 | 2.6 | 0.00 | 0.00 | 0.00 | 6 | 1011.6 |
| 20260507140001 | 58 | 17 | 1.7 | 5.2 | 0.00 | 0.00 | 0.00 | 5 | 1012.7 |
| 20260507134827 | 59 | 358 | 2.6 | 5.2 | 0.00 | 0.00 | 0.00 | 5 | 1012.7 |
| 20260507133827 | 56 | 333 | 0.9 | 3.5 | 0.00 | 0.00 | 0.00 | 6 | 1012.7 |
| 20260507132827 | 58 | 353 | 1.7 | 4.3 | 0.00 | 0.00 | 0.00 | 5 | 1012.7 |
| 20260507131827 | 56 | 322 | 2.6 | 5.2 | 0.00 | 0.00 | 0.00 | 6 | 1012.7 |
| 20260507130827 | 57 | 317 | 1.7 | 4.3 | 0.00 | 0.00 | 0.00 | 5 | 1012.7 |
| 20260507125827 | 57 | 356 | 1.7 | 5.2 | 0.00 | 0.00 | 0.00 | 5 | 1011.6 |
| 20260507124827 | 58 | 311 | 3.5 | 4.3 | 0.00 | 0.00 | 0.00 | 5 | 1011.6 |
| 20260507123827 | 57 | 302 | 1.7 | 3.5 | 0.00 | 0.00 | 0.00 | 5 | 1011.6 |
| 20260507122827 | 58 | 315 | 1.7 | 5.2 | 0.00 | 0.00 | 0.00 | 5 | 1011.6 |
| 20260507121827 | 59 | 308 | 2.6 | 6.1 | 0.00 | 0.00 | 0.00 | 5 | 1011.6 |
| 20260507120657 | 59 | 270 | 2.6 | 6.1 | 0.00 | 0.00 | 0.00 | 5 | 1011.6 |
| 20260507115657 | 60 | 324 | 1.7 | 5.2 | 0.00 | 0.00 | 0.00 | 6 | 1011.6 |
| 20260507114657 | 59 | 326 | 2.6 | 6.1 | 0.00 | 0.00 | 0.00 | 6 | 1011.6 |
| 20260507113657 | 59 | 348 | 2.6 | 5.2 | 0.00 | 0.00 | 0.00 | 10 | 1011.6 |
| 20260507112657 | 59 | 319 | 2.6 | 5.2 | 0.00 | 0.00 | 0.00 | 12 | 1011.6 |
| 20260507111657 | 59 | 285 | 3.5 | 5.2 | 0.00 | 0.00 | 0.00 | 14 | 1011.6 |
| 20260507110657 | 58 | 299 | 2.6 | 7.8 | 0.00 | 0.00 | 0.00 | 8 | 1011.6 |
| 20260507105657 | 59 | 328 | 2.6 | 7.0 | 0.00 | 0.00 | 0.00 | 16 | 1011.6 |
| 20260507104657 | 59 | 324 | 2.6 | 5.2 | 0.00 | 0.00 | 0.00 | 22 | 1011.6 |
| 20260507103657 | 59 | 122 | 0.9 | 5.2 | 0.00 | 0.00 | 0.00 | 22 | 1011.6 |
| 20260507102657 | 59 | 292 | 2.6 | 7.0 | 0.00 | 0.00 | 0.00 | 24 | 1011.6 |
| 20260507101657 | 59 | 27 | 2.6 | 5.2 | 0.00 | 0.00 | 0.00 | 25 | 1011.6 |
| 20260507100657 | 59 | 20 | 2.6 | 5.2 | 0.00 | 0.00 | 0.00 | 25 | 1011.6 |
| 20260507095657 | 59 | 295 | 2.6 | 5.2 | 0.00 | 0.00 | 0.00 | 25 | 1011.6 |
| 20260507094657 | 58 | 313 | 2.6 | 6.1 | 0.00 | 0.00 | 0.00 | 25 | 1010.6 |
| 20260507093657 | 58 | 351 | 1.7 | 6.1 | 0.00 | 0.00 | 0.00 | 25 | 1010.6 |
| 20260507092657 | 58 | 341 | 2.6 | 7.0 | 0.00 | 0.00 | 0.00 | 25 | 1010.6 |
| 20260507091657 | 58 | 313 | 3.5 | 5.2 | 0.00 | 0.00 | 0.00 | 26 | 1011.6 |
| 20260507090657 | 58 | 2 | 2.6 | 7.0 | 0.00 | 0.00 | 0.00 | 26 | 1011.6 |
| 20260507085657 | 58 | 324 | 3.5 | 8.7 | 0.00 | 0.00 | 0.00 | 27 | 1011.6 |
| 20260507084527 | 58 | 330 | 3.5 | 6.1 | 0.00 | 0.00 | 0.00 | 27 | 1011.6 |
| 20260507083527 | 58 | 45 | 3.5 | 5.2 | 0.00 | 0.00 | 0.00 | 27 | 1011.6 |
| 20260507082527 | 59 | 335 | 2.6 | 11.3 | 0.00 | 0.00 | 0.00 | 29 | 1011.6 |
| 20260507081227 | 59 | 22 | 3.5 | 5.2 | 0.00 | 0.00 | 0.00 | 28 | 1011.6 |
| 20260507080227 | 59 | 325 | 3.5 | 7.8 | 0.00 | 0.00 | 0.00 | 29 | 1011.6 |
| 20260507075227 | 58 | 290 | 4.3 | 9.6 | 0.00 | 0.00 | 0.00 | 30 | 1011.6 |
| 20260507074227 | 59 | 332 | 3.5 | 7.0 | 0.00 | 0.00 | 0.00 | 32 | 1011.6 |
| 20260507073227 | 59 | 313 | 3.5 | 8.7 | 0.00 | 0.00 | 0.00 | 34 | 1011.6 |
| 20260507072227 | 58 | 295 | 2.6 | 7.0 | 0.00 | 0.00 | 0.00 | 33 | 1011.6 |
| 20260507071227 | 59 | 333 | 2.6 | 5.2 | 0.00 | 0.00 | 0.00 | 35 | 1011.6 |
| 20260507070227 | 58 | 274 | 3.5 | 7.8 | 0.00 | 0.00 | 0.00 | 35 | 1010.6 |
| 20260507064844 | 58 | 354 | 2.6 | 13.0 | 0.00 | 0.00 | 0.00 | 36 | 1010.6 |
| 20260507063844 | 58 | 14 | 3.5 | 5.2 | 0.00 | 0.00 | 0.00 | 36 | 1010.6 |
| 20260507062844 | 57 | 333 | 2.6 | 5.2 | 0.00 | 0.00 | 0.00 | 39 | 1010.6 |
| 20260507061714 | 56 | 338 | 3.5 | 9.6 | 0.00 | 0.00 | 0.00 | 42 | 1009.6 |
| 20260507060714 | 55 | 334 | 2.6 | 7.8 | 0.00 | 0.00 | 0.00 | 44 | 1009.6 |
| 20260507055714 | 57 | 328 | 2.6 | 7.8 | 0.00 | 0.00 | 0.00 | 45 | 1009.6 |
| 20260507054714 | 56 | 304 | 3.5 | 7.0 | 0.00 | 0.00 | 0.00 | 47 | 1009.6 |
| 20260507053714 | 56 | 10 | 3.5 | 5.2 | 0.00 | 0.00 | 0.00 | 48 | 1009.6 |
| 20260507052522 | 55 | 331 | 3.5 | 6.1 | 0.00 | 0.00 | 0.00 | 48 | 1010.6 |
| 20260507051523 | 55 | 295 | 3.5 | 7.8 | 0.00 | 0.00 | 0.00 | 50 | 1009.6 |
| 20260507050201 | 53 | 276 | 2.6 | 7.0 | 0.00 | 0.00 | 0.00 | 51 | 1009.6 |
| 20260507045201 | 56 | 295 | 3.5 | 7.0 | 0.00 | 0.00 | 0.00 | 51 | 1009.6 |
| 20260507044201 | 54 | 323 | 0.9 | 5.2 | 0.00 | 0.00 | 0.00 | 54 | 1009.6 |
| 20260507043201 | 55 | 290 | 1.7 | 5.2 | 0.00 | 0.00 | 0.00 | 58 | 1008.5 |
| 20260507042202 | 54 | 338 | 2.6 | 5.2 | 0.00 | 0.00 | 0.00 | 62 | 1008.5 |
| 20260507041201 | 52 | 284 | 2.6 | 4.3 | 0.00 | 0.00 | 0.00 | 62 | 1008.5 |
| 20260507040201 | 54 | 328 | 2.6 | 5.2 | 0.00 | 0.00 | 0.00 | 65 | 1007.5 |
| 20260507035010 | 51 | 342 | 2.6 | 6.1 | 0.00 | 0.00 | 0.00 | 68 | 1007.5 |
| 20260507034010 | 50 | 351 | 3.5 | 7.8 | 0.00 | 0.00 | 0.00 | 71 | 1007.5 |
| 20260507033011 | 49 | 0 | 2.6 | 5.2 | 0.00 | 0.00 | 0.00 | 70 | 1007.5 |
| 20260507032010 | 50 | 338 | 1.7 | 5.2 | 0.00 | 0.00 | 0.00 | 70 | 1008.5 |
| 20260507031010 | 49 | 307 | 3.5 | 6.1 | 0.00 | 0.00 | 0.00 | 70 | 1008.5 |
| 20260507030010 | 49 | 11 | 2.6 | 5.2 | 0.00 | 0.00 | 0.00 | 71 | 1007.5 |
| 20260507024819 | 48 | 331 | 3.5 | 7.0 | 0.00 | 0.00 | 0.00 | 72 | 1007.5 |
| 20260507023819 | 48 | 349 | 2.6 | 6.1 | 0.00 | 0.00 | 0.00 | 72 | 1007.5 |
| 20260507022819 | 49 | 346 | 3.5 | 6.1 | 0.00 | 0.00 | 0.00 | 81 | 1006.4 |
| 20260507021819 | 52 | 324 | 2.6 | 6.1 | 0.00 | 0.00 | 0.00 | 96 | 1006.4 |
| 20260507020819 | 52 | 288 | 0.9 | 3.5 | 0.00 | 0.00 | 0.00 | 96 | 1006.4 |
| 20260507015819 | 52 | 297 | 2.6 | 3.5 | 0.00 | 0.00 | 0.00 | 97 | 1005.4 |
| 20260507014819 | 52 | 315 | 0.0 | 2.6 | 0.00 | 0.00 | 0.00 | 97 | 1005.4 |
| 20260507013457 | 52 | 284 | 0.9 | 3.5 | 0.00 | 0.00 | 0.00 | 97 | 1005.4 |
| 20260507012457 | 52 | 342 | 0.9 | 2.6 | 0.00 | 0.00 | 0.00 | 97 | 1005.4 |
| 20260507011457 | 51 | 327 | 0.0 | 3.5 | 0.00 | 0.00 | 0.00 | 97 | 1005.4 |
| 20260507010306 | 50 | 338 | 0.9 | 4.3 | 0.00 | 0.00 | 0.00 | 96 | 1005.4 |
| 20260507005306 | 50 | 288 | 0.9 | 2.6 | 0.00 | 0.00 | 0.00 | 94 | 1005.4 |
| 20260507004306 | 50 | 270 | 0.0 | 1.7 | 0.00 | 0.00 | 0.00 | 94 | 1005.4 |
| 20260507003306 | 50 | 292 | 0.9 | 2.6 | 0.00 | 0.00 | 0.00 | 93 | 1005.4 |
| 20260507002115 | 51 | 303 | 0.0 | 3.5 | 0.00 | 0.00 | 0.00 | 94 | 1005.4 |
| 20260507001115 | 51 | 339 | 0.9 | 4.3 | 0.00 | 0.00 | 0.00 | 93 | 1005.4 |
| 20260507000115 | 52 | 266 | 2.6 | 5.2 | 0.00 | 0.00 | 0.00 | 94 | 1004.4 |
| 20260506234924 | 51 | 288 | 1.7 | 5.2 | 0.00 | 0.00 | 0.00 | 93 | 1004.4 |
| 20260506233923 | 51 | 303 | 0.9 | 2.6 | 0.00 | 0.00 | 0.00 | 91 | 1004.4 |
| 20260506232923 | 51 | 288 | 0.9 | 3.5 | 0.00 | 0.00 | 0.00 | 91 | 1004.4 |
| 20260506231923 | 51 | 279 | 0.9 | 7.0 | 0.00 | 0.00 | 0.00 | 91 | 1004.4 |
| 20260506230924 | 51 | 333 | 0.9 | 3.5 | 0.00 | 0.00 | 0.00 | 91 | 1004.4 |
| 20260506225924 | 51 | 270 | 0.9 | 1.7 | 0.00 | 0.00 | 0.00 | 91 | 1003.3 |
| 20260506224924 | 52 | 250 | 1.7 | 3.5 | 0.00 | 0.00 | 0.00 | 92 | 1003.3 |
| 20260506223923 | 51 | 274 | 0.9 | 3.5 | 0.00 | 0.00 | 0.00 | 91 | 1003.3 |
| 20260506222923 | 51 | 328 | 0.0 | 3.5 | 0.00 | 0.00 | 0.00 | 91 | 1002.3 |
| 20260506221732 | 50 | 270 | 0.9 | 2.6 | 0.00 | 0.00 | 0.00 | 91 | 1003.3 |
| 20260506220732 | 49 | 276 | 0.9 | 2.6 | 0.00 | 0.00 | 0.00 | 90 | 1003.3 |
| 20260506215732 | 49 | 241 | 0.0 | 2.6 | 0.00 | 0.00 | 0.00 | 88 | 1003.3 |
| 20260506214732 | 49 | 227 | 0.9 | 2.6 | 0.00 | 0.00 | 0.00 | 88 | 1003.3 |
| 20260506213732 | 48 | 270 | 0.9 | 4.3 | 0.00 | 0.00 | 0.00 | 87 | 1003.3 |
| 20260506212732 | 48 | 338 | 0.0 | 0.0 | 0.00 | 0.00 | 0.00 | 88 | 1003.3 |
| 20260506211541 | 49 | 338 | 0.0 | 0.9 | 0.00 | 0.00 | 0.00 | 85 | 1003.3 |
| 20260506210349 | 49 | 338 | 0.0 | 0.0 | 0.00 | 0.00 | 0.00 | 85 | 1003.3 |
| 20260506205349 | 50 | 338 | 0.0 | 1.7 | 0.00 | 0.00 | 0.00 | 85 | 1003.3 |
| 20260506204349 | 50 | 338 | 0.0 | 0.9 | 0.00 | 0.00 | 0.00 | 84 | 1003.3 |
| 20260506203350 | 51 | 329 | 0.9 | 2.6 | 0.00 | 0.00 | 0.00 | 83 | 1003.3 |
| 20260506202349 | 52 | 292 | 0.9 | 1.7 | 0.00 | 0.00 | 0.00 | 79 | 1003.3 |
| 20260506201349 | 53 | 171 | 1.7 | 2.6 | 0.00 | 0.00 | 0.00 | 74 | 1003.3 |
| 20260506200158 | 54 | 180 | 2.6 | 4.3 | 0.00 | 0.00 | 0.00 | 71 | 1004.4 |
| 20260506195158 | 55 | 207 | 1.7 | 3.5 | 0.00 | 0.00 | 0.00 | 66 | 1004.4 |
| 20260506194158 | 56 | 270 | 0.0 | 2.6 | 0.00 | 0.00 | 0.00 | 64 | 1003.3 |
| 20260506193158 | 56 | 172 | 1.7 | 5.2 | 0.00 | 0.00 | 0.00 | 65 | 1003.3 |
| 20260506192157 | 56 | 303 | 1.7 | 5.2 | 0.00 | 0.00 | 0.00 | 64 | 1003.3 |